Regional Weather Roundup
Issued by NWS

Home | Current Version | Previous Version | Text Only | Print | Product List | Glossary On
Versions: 1 2 3 4 5 6 7 8 9 10 11 12 13 14 15 16 17 18 19 20 21 22 23 24 25 26 27 28 29 30 31 32 33 34 35 36 37 38 39 40 41 42 43 44 45 46 47 48 49 50
000
ASCA42 TJSJ 020010
RWRPR
PUERTO RICO/U.S. VIRGIN ISLANDS HOURLY WEATHER ROUNDUP
NATIONAL WEATHER SERVICE SAN JUAN PR
800 PM AST TUE SEP 01 2015

PRZ001-004-020100-
PUERTO RICO

CITY           SKY/WX    TMP DP  RH WIND       PRES   REMARKS
SAN JUAN LMM   TSTM      79  75  89 CALM      30.05R
PONCE          MOCLDY    81  79  94 NE6       29.97
AGUADILLA      PTCLDY    81  75  83 E8        30.03R
CEIBA            N/A     79  77  94 NE10      30.06R
$$

PRZ006-007-020100-
U.S. VIRGIN ISLANDS

CITY           SKY/WX    TMP DP  RH WIND       PRES   REMARKS
CHARLOTTE AMA  CLEAR     82  75  78 E10       30.00F
CHRISTIANSTED  PTCLDY    82  77  83 NE6       30.03R HX  91
$$

HOURLY WEATHER ROUNDUP FOR THE NEWS MEDIA

CITY           SKY/WX    TMP DP  RH WIND       PRES   REMARKS
ORLANDO        MOCLDY    85  75  72 NW5       30.05R HX  93
NEW YORK       PTCLDY    77  65  66 S7        30.04R
NEWARK         PTCLDY    80  66  62 S6        30.02R
CHICAGO        CLEAR     85  72  65 SW9       29.99S HX  91
HARTFORD       CLEAR     68  64  87 SW5       30.03R
BOSTON         PTCLDY    70  63  78 SE7       30.03R
DALLAS         MOSUNNY   91  64  40 SE16      29.96S HX  92
PHILADELPHIA   PTCLDY    83  70  64 E9        30.01R
LOS ANGELES    MOSUNNY   73  63  70 W14       29.89S
WASHINGTON DC  MOCLDY    83  66  56 CALM      30.02S


USA.gov is the U.S. government's official web portal to all federal, state and local government web resources and services.